Home > Weather > Kopervik > Past weeks

Flag for Norway Past Weather in Kopervik, Norway — Yesterday and Last 2 Weeks

Now
59 °F

Scattered clouds.


Feels Like: 57 °F
Forecast: 53 / 58 °F
Wind: 13 mph from West

Location: Karmoy

Current Time: Aug 27, 2016 at 8:51:39 AM

Latest Report: Aug 27, 2016 at 8:20 AM


Visibility: N/A

Pressure: 30.04 "Hg

Humidity: 77%

Dew Point: 52 °F

Location of KopervikLocation

Past Weather in Kopervik — Graph

°F

Kopervik Temperature Yesterday

Maximum temperature yesterday: 61 °F (at 9:50 AM)
Minimum temperature yesterday: 57 °F (at 10:50 AM)
Average temperature yesterday: 59 °F

High & Low Weather Summary for the Past Weeks

 TemperatureHumidityPressure
High70 °F (Aug 21, 12:50 PM)100% (Aug 12, 8:50 AM)30.27 "Hg (Aug 12, 8:50 AM)
Low52 °F (Aug 23, 5:50 AM)56% (Aug 20, 1:50 PM)29.65 "Hg (Aug 26, 9:20 AM)
Average58 °F90%29.98 "Hg
* Reported Aug 12 7:20 AM — Aug 27 7:20 AM, Kopervik, Weather by CustomWeather, © 2016

Note: Actual official high and low records may vary slightly from our data, if they occured in-between our weather recording intervals... More about our weather records

Advertising

Kopervik Weather History for the Previous 24 Hours

Scroll right to see more
 ConditionsComfort  
Time TempWeatherWind HumidityBarometerVisibility
7:20 AM
Sat, Aug 27
57 °FPassing clouds.12 mph88%30.04 "HgN/A
6:50 AM57 °FPassing clouds.12 mph82%30.04 "HgN/A
6:20 AM57 °FCool.13 mph82%30.01 "HgN/A
5:50 AM57 °FCool.13 mph77%30.01 "HgN/A
5:20 AM57 °FPassing clouds.14 mph82%30.01 "HgN/A
4:50 AM59 °FOvercast.13 mph77%30.01 "HgN/A
4:20 AM59 °FOvercast.13 mph77%30.01 "HgN/A
3:50 AM59 °FOvercast.13 mph77%29.98 "HgN/A
3:20 AM59 °FOvercast.14 mph72%29.98 "HgN/A
2:50 AM59 °FPassing clouds.15 mph77%29.98 "HgN/A
2:20 AM59 °FCool.15 mph77%29.98 "HgN/A
1:50 AM59 °FCool.17 mph77%29.98 "HgN/A
1:20 AM59 °FPassing clouds.16 mph77%29.95 "HgN/A
12:50 AM57 °FCool.15 mph88%29.95 "HgN/A
12:20 AM59 °FCool.18 mph77%29.95 "HgN/A
11:50 PM
Fri, Aug 26
59 °FPassing clouds.20 mph82%29.92 "HgN/A
11:20 PM59 °FPassing clouds.20 mph82%29.92 "HgN/A
10:50 PM59 °FPassing clouds.21 mph82%29.92 "HgN/A
10:20 PM59 °FPassing clouds.21 mph82%29.89 "HgN/A
9:50 PM59 °FBroken clouds.22 mph88%29.89 "HgN/A
9:20 PM59 °FScattered clouds.24 mph88%29.86 "HgN/A
8:50 PM59 °FBroken clouds.24 mph82%29.86 "HgN/A
8:20 PM59 °FBroken clouds.24 mph88%29.86 "HgN/A
7:50 PM61 °FScattered showers. Broken clouds.24 mph88%29.83 "HgN/A
7:20 PM59 °FDrizzle. Broken clouds.20 mph94%29.83 "HgN/A
6:50 PM59 °FScattered showers. Broken clouds.16 mph94%29.83 "HgN/A
6:20 PM59 °FDrizzle. Broken clouds.13 mph88%29.83 "Hg6 mi
5:50 PM57 °FScattered showers. Broken clouds.15 mph88%29.83 "HgN/A
5:20 PM59 °FScattered showers. Broken clouds.15 mph82%29.83 "HgN/A
4:50 PM59 °FScattered showers. Broken clouds.14 mph82%29.83 "HgN/A
4:20 PM59 °FBroken clouds.16 mph82%29.83 "HgN/A
3:50 PM59 °FBroken clouds.15 mph82%29.83 "HgN/A
3:20 PM59 °FBroken clouds.14 mph82%29.83 "HgN/A
2:50 PM57 °FBroken clouds.13 mph88%29.80 "HgN/A
1:50 PM57 °FBroken clouds.17 mph94%29.80 "HgN/A
1:20 PM57 °FPartly sunny.20 mph94%29.77 "HgN/A
12:50 PM57 °FLight rain. Broken clouds.15 mph94%29.74 "HgN/A
12:20 PM57 °FLight rain. Broken clouds.15 mph94%29.68 "HgN/A
11:50 AM57 °FRain. Broken clouds.24 mph100%29.71 "Hg3 mi
11:20 AM57 °FLight rain. Fog.18 mph94%29.68 "Hg2 mi
10:50 AM57 °FLight rain. Mostly cloudy.14 mph100%29.68 "Hg2 mi
10:20 AM59 °FLight rain. Fog.12 mph100%29.65 "Hg2 mi
9:50 AM61 °FHeavy rain. Fog.12 mph94%29.68 "Hg1 mi
9:20 AM59 °FHeavy rain. Cloudy.9 mph100%29.65 "Hg1 mi
8:50 AM59 °FRain. Fog.9 mph100%29.68 "Hg2 mi
8:20 AM59 °FHeavy rain. Broken clouds.7 mph100%29.71 "Hg1 mi
Weather by CustomWeather, © 2016

See weather overviewHow to use our weather pages